Location: Aalsum
(53.3404°N, 6.0062°E)
Time: 08:44:26
(UTC+00:00)

SKYMED 2 - Pass Details

Date: 28 January 2023
Orbit: 621 x 623 km, 97.9° (Epoch: 19 March)

Event Time Altitude Azimuth Distance (km) Brightness Sun altitude
Rises 17:38:44 0° 16° (NNE) 2,923 6.7 -13.0°
Reaches altitude 10° 17:40:58 10° 20° (NNE) 2,011 5.9 -13.3°
Maximum altitude 17:45:18 61° 101° (ESE) 714 3.6 -13.9°
Drops below altitude 10° 17:49:36 10° 183° (S) 1,993 6.3 -14.5°
Sets 17:51:48 0° 187° (S) 2,895 7.2 -14.9°
